Fort Campbell, KY

2:07 PM CDT on July 22, 2017 (GMT -0500)
Campbell Army Air Field

Weather History for KHOP - August, 2013

Change the Weather History Date:

Tuesday, August 6, 2013

  Actual Average Record
Temperature  
Mean Temperature 75 °F -  
Max Temperature 82 °F 85 °F 98 °F (2007)
Min Temperature 69 °F 66 °F 59 °F (2004)
Cooling Degree Days 10    
Growing Degree Days 25 (Base 50)    
Moisture  
Dew Point 75 °F    
Average Humidity 95    
Maximum Humidity 100    
Minimum Humidity 80    
Precipitation  
Precipitation 0.11 in - - ()
Sea Level Pressure  
Sea Level Pressure 29.94 in    
Wind  
Wind Speed 4 mph (South)    
Max Wind Speed 10 mph    
Max Gust Speed -    
Visibility 10 miles    
Events Rain    
Averages and records for this station are not official NWS values.
T = Trace of Precipitation, MM = Missing Value Source: NWS Daily Summary

Daily Weather History Graph

Daily Weather History Graph

Search for Another Location

Airport or City:

Trip Planner

Search our weather history database for the weather conditions in past years. The results will help you decide how hot, cold, wet, or windy it might be!

Date:

Astronomy

Aug. 06, 2013 Rise Set
Actual Time 6:00 AM CDT 7:50 PM CDT
Civil Twilight 5:31 AM CDT 8:18 PM CDT
Nautical Twilight 4:57 AM CDT 8:52 PM CDT
Astronomical Twilight 4:21 AM CDT 9:29 PM CDT
Moon 5:49 AM CDT (8/6) 7:27 PM CDT (8/6)
Length of Visible Light 14h 47m
Length of Day
13h 50m
Waning Crescent, 0% of the Moon is Illuminated
Aug 6
Waning Crescent
Aug 6
New
Aug 14
First Quarter
Aug 20
Full
Aug 28
Last Quarter

Hourly Weather History & Observations

Time (CDT) Temp. Heat Index Dew Point Humidity Pressure Visibility Wind Dir Wind Speed Gust Speed Precip Events Conditions
12:58 AM 69.3 °F - 69.3 °F 100% 29.94 in 10.0 mi ESE 4.6 mph - N/A   Overcast
1:58 AM 69.8 °F - 69.8 °F 100% 29.94 in 10.0 mi ENE 2.3 mph - N/A   Overcast
1:59 AM 69.8 °F - 69.8 °F 100% 29.95 in 10.0 mi East 2.3 mph - N/A   Drizzle
2:09 AM 69.8 °F - 69.8 °F 100% 29.95 in 10.0 mi ENE 2.3 mph - N/A   Overcast
2:58 AM 70.0 °F - 70.0 °F 100% 29.91 in 10.0 mi ESE 5.8 mph - 0.01 in   Mostly Cloudy
3:20 AM 69.8 °F - 69.8 °F 100% 29.92 in 10.0 mi ENE 2.3 mph - N/A   Light Drizzle
3:21 AM 69.8 °F - 69.8 °F 100% 29.92 in 10.0 mi ENE 2.3 mph - N/A   Light Drizzle
3:53 AM 69.8 °F - 69.8 °F 100% 29.91 in 10.0 mi SE 6.9 mph - N/A   Overcast
3:58 AM 70.2 °F - 70.2 °F 100% 29.91 in 10.0 mi ESE 8.1 mph - 0.03 in   Overcast
4:35 AM 69.8 °F - 69.8 °F 100% 29.91 in 10.0 mi SSE 3.5 mph - N/A   Mostly Cloudy
4:58 AM 70.0 °F - 70.0 °F 100% 29.91 in 10.0 mi ESE 2.3 mph - N/A   Scattered Clouds
5:58 AM 70.5 °F - 70.5 °F 100% 29.93 in 10.0 mi SE 2.3 mph - N/A   Partly Cloudy
6:58 AM 70.2 °F - 70.2 °F 100% 29.94 in 10.0 mi SE 2.3 mph - N/A   Scattered Clouds
7:58 AM 72.3 °F - 72.3 °F 100% 29.95 in 10.0 mi South 5.8 mph - N/A   Partly Cloudy
8:55 AM 73.4 °F - 73.4 °F 100% 29.95 in 10.0 mi ESE 1.2 mph - N/A   Scattered Clouds
8:58 AM 73.6 °F - 73.6 °F 100% 29.94 in 10.0 mi ESE 1.2 mph - N/A   Scattered Clouds
8:59 AM 73.4 °F - 73.4 °F 100% 29.95 in 10.0 mi Variable 1.2 mph - N/A   Light Drizzle
9:09 AM 73.4 °F - 73.4 °F 100% 29.96 in 10.0 mi SSW 2.3 mph - N/A   Mostly Cloudy
9:58 AM 75.2 °F - 75.2 °F 100% 29.96 in 10.0 mi West 4.6 mph - 0.00 in   Overcast
10:03 AM 75.2 °F - 75.2 °F 100% 29.96 in 10.0 mi West 4.6 mph - N/A   Overcast
10:32 AM 75.2 °F - 75.2 °F 100% 29.97 in 4.0 mi West 5.8 mph - N/A Rain Light Rain
10:36 AM 75.2 °F - 75.2 °F 100% 29.97 in 1.2 mi WSW 4.6 mph - N/A Rain Heavy Rain
10:45 AM 75.2 °F - 75.2 °F 100% 29.97 in 3.0 mi West 6.9 mph - N/A Rain Light Rain
10:52 AM 75.2 °F - 75.2 °F 100% 29.97 in 10.0 mi West 8.1 mph - N/A   Overcast
10:58 AM 75.2 °F - 75.2 °F 100% 29.97 in 10.0 mi West 6.9 mph - 0.07 in   Overcast
11:24 AM 77.0 °F - 77.0 °F 100% 29.97 in 10.0 mi West 10.4 mph - N/A   Overcast
11:58 AM 77.7 °F - 77.7 °F 100% 29.97 in 10.0 mi West 8.1 mph - N/A   Overcast
12:14 PM 78.8 °F - 78.8 °F 100% 29.98 in 10.0 mi NW 4.6 mph - N/A   Overcast
12:32 PM 78.8 °F - 77.0 °F 94% 29.97 in 10.0 mi Variable 4.6 mph - N/A   Overcast
12:48 PM 80.6 °F 86.2 °F 75.2 °F 84% 29.96 in 10.0 mi WNW 2.3 mph - N/A   Mostly Cloudy
12:58 PM 80.1 °F 85.2 °F 75.6 °F 86% 29.95 in 10.0 mi Variable 1.2 mph - N/A   Mostly Cloudy
1:36 PM 80.6 °F 86.2 °F 75.2 °F 84% 29.96 in 10.0 mi SSW 3.5 mph - N/A   Mostly Cloudy
1:40 PM 80.6 °F 86.2 °F 75.2 °F 84% 29.96 in 10.0 mi SSW 2.3 mph - N/A   Mostly Cloudy
1:58 PM 81.7 °F 88.0 °F 75.0 °F 80% 29.95 in 10.0 mi South 4.6 mph - N/A   Scattered Clouds
2:58 PM 81.3 °F 87.2 °F 74.7 °F 80% 29.93 in 10.0 mi SSW 5.8 mph - N/A   Partly Cloudy
3:43 PM 80.6 °F 86.2 °F 75.2 °F 84% 29.94 in 10.0 mi Variable 3.5 mph - N/A   Light Drizzle
3:58 PM 80.2 °F 85.7 °F 75.6 °F 86% 29.92 in 10.0 mi South 4.6 mph - 0.00 in   Light Drizzle
4:13 PM 80.6 °F 86.2 °F 75.2 °F 84% 29.94 in 10.0 mi South 3.5 mph - N/A   Clear
4:58 PM 79.9 °F - 74.5 °F 83% 29.91 in 10.0 mi SE 3.5 mph - 0.00 in   Partly Cloudy
5:51 PM 78.8 °F - 75.2 °F 89% 29.92 in 10.0 mi SSE 4.6 mph - N/A   Light Drizzle
5:58 PM 79.3 °F - 75.4 °F 88% 29.92 in 10.0 mi South 3.5 mph - 0.00 in   Light Drizzle
6:03 PM 78.8 °F - 75.2 °F 89% 29.93 in 10.0 mi SSW 3.5 mph - N/A   Scattered Clouds
6:09 PM 78.8 °F - 75.2 °F 89% 29.93 in 10.0 mi South 4.6 mph - N/A   Mostly Cloudy
6:15 PM 78.8 °F - 75.2 °F 89% 29.93 in 10.0 mi South 3.5 mph - N/A   Mostly Cloudy
6:24 PM 78.8 °F - 75.2 °F 89% 29.94 in 10.0 mi SW 2.3 mph - N/A   Mostly Cloudy
6:35 PM 78.8 °F - 77.0 °F 94% 29.94 in 10.0 mi WSW 2.3 mph - N/A   Mostly Cloudy
6:57 PM 78.8 °F - 77.0 °F 94% 29.94 in 10.0 mi West 3.5 mph - N/A   Mostly Cloudy
6:58 PM 79.2 °F - 76.8 °F 92% 29.93 in 10.0 mi West 3.5 mph - 0.00 in   Mostly Cloudy
7:01 PM 78.8 °F - 77.0 °F 94% 29.94 in 10.0 mi NW 3.5 mph - N/A   Mostly Cloudy
7:09 PM 78.8 °F - 78.8 °F 100% 29.94 in 10.0 mi West 4.6 mph - N/A   Mostly Cloudy
7:13 PM 78.8 °F - 77.0 °F 94% 29.94 in 10.0 mi Variable 5.8 mph - N/A   Mostly Cloudy
7:14 PM 78.8 °F - 77.0 °F 94% 29.94 in 10.0 mi Variable 4.6 mph - N/A   Light Drizzle
7:15 PM 78.8 °F - 77.0 °F 94% 29.94 in 10.0 mi West 4.6 mph - N/A   Light Drizzle
7:22 PM 78.8 °F - 78.8 °F 100% 29.94 in 10.0 mi Calm Calm - N/A   Light Drizzle
7:23 PM 78.8 °F - 78.8 °F 100% 29.94 in 10.0 mi Calm Calm - N/A   Mostly Cloudy
7:58 PM 77.9 °F - 77.9 °F 100% 29.93 in 10.0 mi South 3.5 mph - 0.00 in   Scattered Clouds
8:58 PM 77.2 °F - 77.2 °F 100% 29.94 in 10.0 mi SSW 3.5 mph - N/A   Mostly Cloudy
9:46 PM 77.0 °F - 77.0 °F 100% 29.95 in 10.0 mi SSE 3.5 mph - N/A   Light Drizzle
9:58 PM 77.0 °F - 77.0 °F 100% 29.95 in 10.0 mi SSE 3.5 mph - 0.00 in   Light Drizzle
10:02 PM 77.0 °F - 77.0 °F 100% 29.95 in 10.0 mi SSE 3.5 mph - N/A   Mostly Cloudy
10:58 PM 77.0 °F - 77.0 °F 100% 29.95 in 10.0 mi South 4.6 mph - 0.00 in   Mostly Cloudy
11:58 PM 76.5 °F - 76.5 °F 100% 29.94 in 10.0 mi South 5.8 mph - N/A   Overcast